Location: Zlin
(49.2330°N, 17.6670°E)
Time: 04:55:33
(UTC+02:00)

ISS - Visible Passes

Search period start: 30 July 2014 00:00
Search period end: 09 August 2014 00:00
Orbit: 411 x 419 km, 51.6° (Epoch: 29 July)

Date Brightness Start Highest point End Pass type
(mag) Time Alt. Az. Time Alt. Az. Time Alt. Az.
30 Jul -1.8 01:12:46 31° ENE 01:12:46 31° ENE 01:14:41 10° ENE visible
30 Jul -2.5 02:45:38 15° WNW 02:48:12 54° N 02:51:31 10° E visible
30 Jul -3.3 04:21:43 10° WNW 04:25:06 88° SSW 04:28:28 10° ESE visible
31 Jul -0.5 00:25:37 12° ENE 00:25:37 12° ENE 00:25:51 10° ENE visible
31 Jul -2.6 01:58:28 41° WNW 01:59:19 56° N 02:02:38 10° ENE visible
31 Jul -3.0 03:32:53 10° WNW 03:36:15 73° NNE 03:39:37 10° E visible
01 Aug -2.1 01:11:24 40° NE 01:11:24 40° NE 01:13:46 10° ENE visible
01 Aug -2.8 02:44:16 12° WNW 02:47:23 61° N 02:50:43 10° E visible
01 Aug -3.0 04:20:50 10° WNW 04:24:05 48° SSW 04:27:20 10° SE visible
02 Aug -0.6 00:24:33 12° ENE 00:24:33 12° ENE 00:24:54 10° ENE visible
02 Aug -2.6 01:57:27 37° NW 01:58:28 55° N 02:01:48 10° E visible
02 Aug -3.4 03:31:57 10° WNW 03:35:18 69° SSW 03:38:38 10° ESE visible
02 Aug -1.7 21:53:47 10° S 21:55:22 18° SSE 21:55:22 18° SSE visible
03 Aug -1.3 01:11:19 24° ENE 01:11:19 24° ENE 01:12:52 10° ENE visible
03 Aug -3.3 02:44:18 21° WNW 02:46:28 88° NNE 02:49:50 10° ESE visible
03 Aug -2.1 04:20:08 10° W 04:22:54 24° SW 04:25:38 10° SSE visible
03 Aug -1.4 21:06:00 10° SSE 21:07:40 13° SE 21:09:20 10° ESE visible
03 Aug -3.4 22:40:33 10° SW 22:43:51 61° SSE 22:45:03 34° E visible
04 Aug -0.8 00:17:19 10° W 00:18:03 16° W 00:18:03 16° W visible
04 Aug -0.8 02:00:15 15° E 02:00:15 15° E 02:00:56 10° E visible
04 Aug -2.7 03:33:24 30° WSW 03:34:10 35° SSW 03:37:16 10° SE visible
04 Aug -2.9 21:51:54 10° SW 21:55:03 41° SSE 21:58:14 10° ENE visible
04 Aug -2.9 23:28:23 10° W 23:31:43 65° NNW 23:32:14 53° NE visible
05 Aug -2.3 21:03:25 10° SSW 21:06:18 28° SE 21:09:13 10° E visible
05 Aug -3.2 22:39:28 10° WSW 22:42:48 79° NNW 22:45:29 15° ENE visible
06 Aug -1.6 00:16:26 10° WNW 00:18:21 30° WNW 00:18:21 30° WNW visible
06 Aug -3.4 21:50:35 10° WSW 21:53:55 79° SSE 21:57:17 10° ENE visible
06 Aug -2.6 23:27:29 10° W 23:30:47 54° N 23:31:16 48° NNE visible
07 Aug -3.2 21:01:48 10° SW 21:05:05 56° SSE 21:08:22 10° ENE visible
07 Aug -2.7 22:38:31 10° W 22:41:50 58° N 22:44:03 19° ENE visible
08 Aug -1.2 00:15:26 10° WNW 00:16:54 24° WNW 00:16:54 24° WNW visible
08 Aug -2.9 21:49:34 10° W 21:52:53 67° NNW 21:56:14 10° ENE visible
08 Aug -2.7 23:26:31 10° WNW 23:29:38 57° N 23:29:38 57° N visible
